K4XP Weather Reports


time (UTC)temp
F
wind
direction
speed
knots
gust
knots
rain 1hr
in
rain 24hr
in
rain mn
in
humidity
%
barometer
mb
20260906052522 74 240 0.0 0.0 0.00 0.02 0.00 91 1012.7
20260906052023 74 240 0.0 2.6 0.00 0.02 0.00 91 1012.7
20260906051512 74 240 0.0 2.6 0.00 0.02 0.00 91 1012.9
20260906051012 74 207 0.9 2.6 0.00 0.02 0.00 91 1012.9
20260906050520 74 214 0.0 0.0 0.00 0.02 0.00 91 1012.7
20260906050022 74 213 0.0 0.0 0.00 0.02 0.00 91 1012.6
20260906045512 74 214 0.0 0.0 0.00 0.02 0.00 91 1012.5
20260906045015 74 213 0.0 0.0 0.00 0.02 0.00 91 1012.6
20260906044524 74 214 0.0 0.0 0.00 0.02 0.00 90 1012.6
20260906044034 74 213 0.0 0.0 0.00 0.02 0.00 90 1012.6
20260906043516 74 214 0.0 0.0 0.00 0.02 0.00 91 1012.6
20260906043018 74 213 0.0 0.0 0.00 0.02 0.00 90 1012.6
20260906042526 74 213 0.0 0.0 0.00 0.02 0.00 90 1012.6
20260906042034 74 214 0.0 0.0 0.00 0.02 0.00 90 1012.6
20260906041517 74 213 0.0 0.0 0.00 0.02 0.00 90 1012.6
20260906041028 74 213 0.0 0.0 0.00 0.02 0.00 90 1012.7
20260906040528 75 214 0.0 0.0 0.00 0.02 0.00 90 1012.7
20260906040018 75 213 0.0 0.0 0.00 0.02 0.00 90 1012.7
20260906035515 75 213 0.0 0.0 0.00 0.02 0.02 90 1012.7
20260906035025 74 214 0.0 0.0 0.00 0.02 0.02 90 1012.6
20260906034527 74 213 0.0 0.0 0.00 0.02 0.02 90 1012.7
20260906034014 75 213 0.0 0.0 0.00 0.02 0.02 90 1012.7
20260906033517 75 213 0.0 0.0 0.00 0.02 0.02 90 1012.7
20260906033025 75 213 0.0 0.0 0.00 0.02 0.02 89 1012.8
20260906032512 75 213 0.0 0.0 0.00 0.02 0.02 89 1012.8
20260906032021 75 214 0.0 0.0 0.00 0.02 0.02 89 1012.9
20260906031525 75 214 0.0 0.0 0.00 0.02 0.02 89 1012.9
20260906031014 75 214 0.0 0.0 0.00 0.02 0.02 89 1013.0
20260906030514 75 213 0.0 0.0 0.00 0.02 0.02 89 1013.1
20260906030023 75 214 0.0 0.0 0.00 0.02 0.02 89 1013.0
20260906025531 75 191 0.0 0.0 0.00 0.02 0.02 89 1013.0
20260906025013 75 191 0.0 0.0 0.00 0.02 0.02 88 1013.1
20260906024521 75 191 0.0 0.0 0.00 0.02 0.02 88 1012.9
20260906024021 76 191 0.0 0.0 0.00 0.02 0.02 88 1012.8
20260906023529 76 191 0.0 0.0 0.00 0.02 0.02 88 1012.9
20260906023012 76 191 0.0 0.0 0.00 0.02 0.02 88 1012.8
20260906022521 76 191 0.0 0.0 0.00 0.02 0.02 88 1012.7
20260906022032 76 191 0.0 0.0 0.00 0.02 0.02 88 1012.8
20260906021514 76 191 0.0 3.5 0.00 0.02 0.02 88 1012.8
20260906021023 76 182 0.9 3.5 0.00 0.02 0.02 89 1012.9
20260906020525 76 194 0.0 1.7 0.00 0.02 0.02 89 1013.0
20260906020016 76 194 0.0 1.7 0.00 0.02 0.02 89 1012.9
20260906015516 76 194 0.0 0.0 0.00 0.02 0.02 90 1012.7
20260906015026 77 194 0.0 0.0 0.00 0.02 0.02 90 1012.6
20260906014529 77 194 0.0 0.0 0.00 0.02 0.02 90 1012.4
20260906014018 77 194 0.0 1.7 0.00 0.02 0.02 90 1012.3
20260906013520 77 194 0.0 1.7 0.00 0.02 0.02 90 1012.3
20260906013029 77 194 0.0 0.0 0.00 0.02 0.02 90 1012.3
20260906012511 77 194 0.0 0.0 0.00 0.02 0.02 90 1012.4
20260906012019 77 194 0.0 0.0 0.00 0.02 0.02 89 1012.4
20260906011521 77 196 0.0 0.0 0.00 0.02 0.02 89 1012.2
20260906011030 77 197 0.0 0.0 0.00 0.02 0.02 89 1012.1
20260906010513 77 67 0.0 0.0 0.00 0.02 0.02 89 1012.1
20260906010023 77 67 0.0 0.0 0.00 0.02 0.02 89 1012.1
20260906005530 77 67 0.0 0.0 0.00 0.02 0.02 88 1012.0
20260906005030 77 67 0.0 0.0 0.00 0.02 0.02 88 1012.0
20260906004511 77 67 0.0 0.0 0.00 0.02 0.02 88 1012.0
20260906004020 77 67 0.0 0.0 0.00 0.02 0.02 88 1012.0
20260906003528 77 67 0.0 0.0 0.00 0.02 0.02 88 1011.8
20260906003013 77 67 0.0 0.0 0.00 0.02 0.02 88 1011.9
20260906002521 77 67 0.0 0.0 0.00 0.02 0.02 87 1011.9
20260906002023 77 234 0.0 0.0 0.00 0.02 0.02 87 1011.8
20260906001531 78 234 0.0 0.0 0.00 0.02 0.02 87 1011.7
20260906001012 78 234 0.0 0.0 0.00 0.02 0.02 87 1011.6
20260906000519 78 234 0.0 0.0 0.00 0.02 0.02 86 1011.7
20260906000023 78 234 0.0 0.0 0.00 0.02 0.02 86 1011.6
20260905235511 78 234 0.0 1.7 0.00 0.02 0.02 86 1011.6
20260905235015 78 234 0.0 1.7 0.00 0.02 0.02 86 1011.5
20260905234523 78 234 0.0 0.0 0.00 0.02 0.02 85 1011.6
20260905234027 78 234 0.0 0.0 0.00 0.02 0.02 85 1011.4
20260905233517 79 234 0.0 0.0 0.00 0.02 0.02 85 1011.4
20260905233023 79 234 0.0 0.0 0.00 0.02 0.02 84 1011.5
20260905232514 79 234 0.0 0.0 0.00 0.02 0.02 84 1011.5
20260905232015 79 234 0.0 0.0 0.00 0.02 0.02 84 1011.6
20260905231523 79 234 0.0 0.0 0.00 0.02 0.02 83 1011.5
20260905231031 79 234 0.0 0.0 0.00 0.02 0.02 83 1011.4
20260905230514 79 242 0.0 0.0 0.00 0.02 0.02 82 1011.4
20260905230015 79 230 0.0 0.0 0.00 0.02 0.02 82 1011.6
20260905225524 79 226 0.0 0.0 0.00 0.02 0.02 82 1011.5
20260905225036 79 261 0.0 0.0 0.00 0.02 0.02 81 1011.4
20260905224519 79 248 0.0 0.0 0.00 0.02 0.02 81 1011.4
20260905224028 79 227 0.0 0.0 0.00 0.02 0.02 81 1011.6
20260905223530 79 238 0.0 0.0 0.00 0.02 0.02 80 1011.5
20260905223018 79 209 0.0 0.0 0.00 0.02 0.02 81 1011.3
20260905222518 79 212 0.0 0.0 0.00 0.02 0.02 82 1011.3
20260905222028 79 242 0.0 0.0 0.00 0.02 0.02 82 1011.3
20260905221529 79 217 0.0 0.0 0.00 0.02 0.02 82 1011.3
20260905221018 79 260 0.0 0.0 0.00 0.02 0.02 82 1011.3
20260905220520 79 239 0.0 0.0 0.00 0.02 0.02 82 1011.3
20260905220029 79 252 0.0 0.0 0.00 0.02 0.02 83 1011.5
20260905215536 79 242 0.0 0.0 0.00 0.02 0.02 83 1011.6
20260905215017 79 269 0.0 0.0 0.00 0.02 0.02 83 1011.7
20260905214519 79 250 0.0 0.0 0.00 0.02 0.02 83 1011.8
20260905214028 79 257 0.0 0.0 0.00 0.02 0.02 82 1011.8
20260905213537 79 271 0.0 0.0 0.00 0.02 0.02 82 1011.8
20260905213020 79 272 0.0 0.0 0.00 0.02 0.02 82 1011.9
20260905212530 79 241 0.0 0.0 0.00 0.02 0.02 82 1012.1
20260905212013 79 225 0.0 0.0 0.00 0.02 0.02 82 1012.1
20260905211521 79 279 0.0 0.0 0.00 0.02 0.02 83 1012.1
20260905211023 79 59 0.0 0.0 0.00 0.02 0.02 83 1012.1
20260905210530 78 134 0.0 0.9 0.00 0.02 0.02 84 1012.1
20260905210012 78 39 0.0 1.7 0.00 0.02 0.02 83 1012.1
20260905205520 78 63 0.0 1.7 0.00 0.02 0.02 83 1012.0
20260905205022 78 32 0.0 0.0 0.00 0.02 0.02 83 1012.0
20260905204512 78 355 0.0 4.3 0.00 0.02 0.02 84 1012.0
20260905204016 78 27 0.0 8.7 0.00 0.02 0.02 85 1012.3
20260905203525 78 78 0.0 8.7 0.01 0.02 0.02 85 1012.4
20260905203029 78 110 2.6 6.1 0.02 0.02 0.02 85 1012.4
20260905202517 78 26 0.0 1.7 0.02 0.02 0.02 85 1012.6
20260905202018 78 20 0.0 1.7 0.02 0.02 0.02 85 1012.5
20260905201528 78 26 0.0 1.7 0.02 0.02 0.02 84 1012.6
20260905201011 78 13 0.0 0.9 0.02 0.02 0.02 84 1012.5
20260905200519 78 22 0.0 0.0 0.02 0.02 0.02 83 1011.9
20260905200030 78 5 0.0 1.7 0.02 0.02 0.02 81 1011.9
20260905195530 79 211 0.0 1.7 0.02 0.02 0.02 79 1011.9
20260905195012 79 145 0.0 0.0 0.02 0.02 0.02 76 1011.9
20260905194521 80 121 0.0 0.9 0.02 0.02 0.02 76 1011.7
20260905194029 81 76 0.0 6.1 0.02 0.02 0.02 74 1012.2
20260905193514 82 69 1.7 10.4 0.01 0.01 0.01 73 1012.8
20260905193024 83 96 0.0 0.9 0.00 0.00 0.00 73 1013.2
20260905192524 84 76 0.0 1.7 0.00 0.00 0.00 69 1013.0
20260905192014 86 59 0.0 4.3 0.00 0.00 0.00 66 1012.9
20260905191516 87 322 0.0 4.3 0.00 0.00 0.00 64 1013.0
20260905191022 89 42 0.0 2.6 0.00 0.00 0.00 61 1012.7
20260905190525 92 9 0.0 0.0 0.00 0.00 0.00 61 1012.1
20260905190031 92 237 0.0 0.0 0.00 0.00 0.00 59 1011.9
20260905185514 93 237 0.0 0.0 0.00 0.00 0.00 59 1012.2
20260905185024 93 237 0.0 0.0 0.00 0.00 0.00 58 1012.3
20260905184532 93 237 0.0 0.0 0.00 0.00 0.00 58 1012.2
20260905184011 94 237 0.0 0.0 0.00 0.00 0.00 58 1012.1
20260905183514 94 238 0.0 0.0 0.00 0.00 0.00 56 1012.0
20260905183025 94 236 0.0 0.0 0.00 0.00 0.00 55 1012.1
20260905182532 95 238 0.0 0.0 0.00 0.00 0.00 54 1012.1
20260905182014 96 252 0.0 0.0 0.00 0.00 0.00 51 1011.9
20260905181523 96 198 0.0 0.0 0.00 0.00 0.00 52 1012.0
20260905181025 96 184 0.0 2.6 0.00 0.00 0.00 52 1012.1
20260905180513 96 176 0.0 3.5 0.00 0.00 0.00 54 1012.3
20260905180015 96 205 0.0 0.0 0.00 0.00 0.00 54 1012.2
20260905175522 95 205 0.0 0.0 0.00 0.00 0.00 55 1012.4
20260905175024 95 213 0.0 0.0 0.00 0.00 0.00 54 1012.5
20260905174513 95 230 0.0 1.7 0.00 0.00 0.00 55 1012.5
20260905174016 95 182 0.0 1.7 0.00 0.00 0.00 56 1012.6
20260905173523 95 204 0.0 0.0 0.00 0.00 0.00 54 1012.7
20260905173032 95 257 0.0 0.0 0.00 0.00 0.00 55 1012.8
20260905172512 94 246 0.0 0.0 0.00 0.00 0.00 55 1012.9
20260905172040 94 232 0.0 0.0 0.00 0.00 0.00 58 1013.0
20260905171518 94 263 0.0 0.9 0.00 0.00 0.00 61 1013.0
20260905171028 94 225 0.0 2.6 0.00 0.00 0.00 55 1013.2
20260905170530 94 184 0.0 2.6 0.00 0.00 0.00 56 1013.2
20260905170019 94 195 0.0 1.7 0.00 0.00 0.00 55 1013.3
20260905165517 93 222 0.0 0.0 0.00 0.00 0.00 57 1013.3
20260905165025 93 231 0.0 0.0 0.00 0.00 0.00 60 1013.5
20260905164526 93 265 0.0 0.0 0.00 0.00 0.00 59 1013.6
20260905164011 92 124 0.0 0.0 0.00 0.00 0.00 61 1013.7
20260905163511 92 115 0.0 0.0 0.00 0.00 0.00 63 1013.8
20260905163021 91 159 0.0 0.0 0.00 0.00 0.00 63 1013.8
20260905162529 91 201 0.0 0.0 0.00 0.00 0.00 64 1013.8
20260905162011 91 207 0.0 0.0 0.00 0.00 0.00 63 1013.8
20260905161521 91 213 0.0 0.0 0.00 0.00 0.00 63 1013.8
20260905161023 91 200 0.0 0.0 0.00 0.00 0.00 63 1013.8
20260905160531 90 200 0.0 0.0 0.00 0.00 0.00 65 1013.9
20260905160013 90 200 0.0 0.0 0.00 0.00 0.00 65 1014.0
20260905155519 90 194 0.0 0.9 0.00 0.00 0.00 66 1014.0
20260905155021 90 180 0.0 0.9 0.00 0.00 0.00 66 1014.1
20260905154529 89 230 0.0 1.7 0.00 0.00 0.00 67 1014.1
20260905154011 89 235 0.0 3.5 0.00 0.00 0.00 67 1014.1
20260905153519 89 355 0.0 3.5 0.00 0.00 0.00 68 1014.1
20260905153020 88 321 0.0 3.5 0.00 0.00 0.00 71 1014.2
20260905152512 88 250 0.0 3.5 0.00 0.00 0.00 70 1014.2
20260905152013 87 275 0.0 0.0 0.00 0.00 0.00 71 1014.1
20260905151521 87 241 0.0 1.7 0.00 0.00 0.00 71 1014.1
20260905151028 87 213 0.0 2.6 0.00 0.00 0.00 71 1014.0
20260905150526 87 232 0.0 2.6 0.00 0.00 0.00 72 1014.1
20260905150035 86 230 0.0 0.0 0.00 0.00 0.00 73 1014.1
20260905145516 86 277 0.0 0.0 0.00 0.00 0.00 73 1014.0
20260905145025 86 201 0.0 0.0 0.00 0.00 0.00 74 1014.1
20260905144525 85 163 0.0 0.0 0.00 0.00 0.00 74 1014.1
20260905144013 85 236 0.0 0.0 0.00 0.00 0.00 75 1014.1
20260905143514 85 255 0.0 0.0 0.00 0.00 0.00 75 1014.2
20260905143024 84 211 0.0 0.0 0.00 0.00 0.00 75 1014.2
20260905142531 84 234 0.0 0.0 0.00 0.00 0.00 76 1014.3
20260905142011 84 211 0.0 0.0 0.00 0.00 0.00 77 1014.2
20260905141512 83 242 0.0 0.0 0.00 0.00 0.00 77 1014.3
20260905141021 83 234 0.0 0.0 0.00 0.00 0.00 78 1014.3
20260905140529 83 226 0.0 0.0 0.00 0.00 0.00 78 1014.4
20260905140030 82 215 0.0 0.0 0.00 0.00 0.00 79 1014.4
20260905135517 82 220 0.0 0.0 0.00 0.00 0.00 80 1014.4
20260905135018 81 223 0.0 0.0 0.00 0.00 0.00 81 1014.6
20260905134527 81 223 0.0 0.0 0.00 0.00 0.00 81 1014.5
20260905134027 81 234 0.0 0.0 0.00 0.00 0.00 83 1014.5
20260905133517 80 263 0.0 0.0 0.00 0.00 0.00 83 1014.6
20260905133019 80 236 0.0 0.0 0.00 0.00 0.00 83 1014.6
20260905132528 79 233 0.0 0.0 0.00 0.00 0.00 85 1014.6
20260905132036 79 275 0.0 0.0 0.00 0.00 0.00 84 1014.6
20260905131518 79 226 0.0 0.0 0.00 0.00 0.00 84 1014.6
20260905131021 78 219 0.0 0.0 0.00 0.00 0.00 85 1014.7
20260905130510 78 221 0.0 0.0 0.00 0.00 0.00 86 1014.6
20260905130013 78 242 0.0 0.0 0.00 0.00 0.00 86 1014.6
20260905125521 78 245 0.0 0.0 0.00 0.00 0.00 87 1014.6
20260905125031 77 252 0.0 0.0 0.00 0.00 0.00 87 1014.6
20260905124512 77 243 0.0 0.0 0.00 0.00 0.00 88 1014.5
20260905124014 77 243 0.0 0.0 0.00 0.00 0.00 88 1014.5
20260905123524 76 242 0.0 0.0 0.00 0.00 0.00 89 1014.4
20260905123034 76 242 0.0 0.0 0.00 0.00 0.00 89 1014.3
20260905122514 76 230 0.0 0.0 0.00 0.00 0.00 90 1014.4
20260905122022 76 230 0.0 0.0 0.00 0.00 0.00 90 1014.4
20260905121525 75 227 0.0 0.0 0.00 0.00 0.00 90 1014.4
20260905121015 75 227 0.0 0.0 0.00 0.00 0.00 90 1014.4
20260905120516 75 227 0.0 0.0 0.00 0.00 0.00 90 1014.3
20260905120026 75 227 0.0 0.0 0.00 0.00 0.00 90 1014.4
20260905115528 75 227 0.0 0.0 0.00 0.00 0.00 90 1014.3
20260905115015 75 227 0.0 0.0 0.00 0.00 0.00 90 1014.2
20260905114516 75 227 0.0 0.0 0.00 0.00 0.00 90 1014.2
20260905114025 74 219 0.0 0.0 0.00 0.00 0.00 90 1014.1
20260905113535 74 219 0.0 0.0 0.00 0.00 0.00 90 1014.0
20260905113018 74 217 0.0 0.0 0.00 0.00 0.00 90 1014.0
20260905112528 74 217 0.0 0.0 0.00 0.00 0.00 90 1013.9
20260905112026 74 217 0.0 0.0 0.00 0.00 0.00 90 1013.8
20260905111514 75 217 0.0 0.0 0.00 0.00 0.00 90 1013.8
20260905111022 74 217 0.0 0.0 0.00 0.00 0.00 90 1013.7
20260905110531 74 217 0.0 0.0 0.00 0.00 0.00 89 1013.6
20260905110013 74 217 0.0 0.0 0.00 0.00 0.00 89 1013.5
20260905105521 75 217 0.0 0.0 0.00 0.00 0.00 89 1013.5
20260905105023 75 217 0.0 0.0 0.00 0.00 0.00 89 1013.4
20260905104532 75 217 0.0 0.0 0.00 0.00 0.00 89 1013.3
20260905104013 75 252 0.0 0.0 0.00 0.00 0.00 89 1013.2
20260905103521 75 252 0.0 0.0 0.00 0.00 0.00 89 1013.2
20260905103023 75 252 0.0 0.0 0.00 0.00 0.00 88 1013.4
20260905102511 75 252 0.0 0.0 0.00 0.00 0.00 88 1013.3
20260905102012 75 252 0.0 0.0 0.00 0.00 0.00 88 1013.2
20260905101521 75 252 0.0 0.0 0.00 0.00 0.00 88 1013.2
20260905101030 75 252 0.0 0.0 0.00 0.00 0.00 88 1013.2
20260905100513 75 252 0.0 0.0 0.00 0.00 0.00 87 1013.2
20260905100016 75 252 0.0 0.0 0.00 0.00 0.00 88 1013.1
20260905095026 75 252 0.0 0.0 0.00 0.00 0.00 87 1013.1
20260905094019 75 252 0.0 0.0 0.00 0.00 0.00 87 1013.0
20260905093521 75 252 0.0 0.0 0.00 0.00 0.00 87 1013.1
20260905093026 75 252 0.0 0.0 0.00 0.00 0.00 87 1013.0
20260905092516 75 243 0.0 0.0 0.00 0.00 0.00 87 1012.9
20260905092021 75 243 0.0 0.0 0.00 0.00 0.00 87 1013.0
20260905091529 75 225 0.0 0.0 0.00 0.00 0.00 87 1013.0
20260905091030 75 215 0.0 0.0 0.00 0.00 0.00 87 1013.0
20260905090520 76 214 0.0 0.0 0.00 0.00 0.00 87 1013.1
20260905090026 76 214 0.0 0.0 0.00 0.00 0.00 87 1013.1
20260905085533 76 214 0.0 0.0 0.00 0.00 0.00 87 1013.1
20260905085015 76 214 0.0 0.0 0.00 0.00 0.00 87 1013.2
20260905084524 76 214 0.0 0.0 0.00 0.00 0.00 87 1013.2
20260905084024 76 214 0.0 0.0 0.00 0.00 0.00 86 1013.3
20260905083533 76 214 0.0 0.0 0.00 0.00 0.00 86 1013.4
20260905083017 76 214 0.0 0.0 0.00 0.00 0.00 86 1013.4
20260905082526 76 214 0.0 0.0 0.00 0.00 0.00 86 1013.4
20260905082029 76 214 0.0 0.0 0.00 0.00 0.00 86 1013.4
20260905081512 76 214 0.0 0.0 0.00 0.00 0.00 85 1013.4
20260905081021 76 214 0.0 0.0 0.00 0.00 0.00 85 1013.4
20260905075512 76 214 0.0 0.0 0.00 0.00 0.00 85 1013.7
20260905075016 76 214 0.0 0.0 0.00 0.00 0.00 85 1013.8
20260905074524 76 214 0.0 0.0 0.00 0.00 0.00 85 1013.8
20260905074027 76 214 0.0 0.0 0.00 0.00 0.00 85 1013.8
20260905073516 76 215 0.0 0.0 0.00 0.00 0.00 85 1013.7
20260905073022 76 214 0.0 0.0 0.00 0.00 0.00 85 1013.8
20260905072529 76 214 0.0 0.0 0.00 0.00 0.00 85 1013.9
20260905072012 76 214 0.0 0.0 0.00 0.00 0.00 85 1013.9
20260905071520 76 214 0.0 0.0 0.00 0.00 0.00 85 1014.0
20260905071022 76 214 0.0 0.0 0.00 0.00 0.00 84 1014.1
20260905070515 77 214 0.0 0.0 0.00 0.00 0.00 84 1014.1
20260905070019 77 214 0.0 0.0 0.00 0.00 0.00 84 1014.0
20260905065527 77 214 0.0 0.0 0.00 0.00 0.00 84 1014.0
20260905065029 77 214 0.0 0.0 0.00 0.00 0.00 84 1014.1
20260905064517 77 214 0.0 0.0 0.00 0.00 0.00 84 1014.1
20260905064018 77 214 0.0 0.0 0.00 0.00 0.00 84 1014.3
20260905063527 77 214 0.0 0.0 0.00 0.00 0.00 84 1014.3
20260905061530 78 214 0.0 0.0 0.00 0.00 0.00 84 1014.4
20260905061030 78 214 0.0 0.0 0.00 0.00 0.00 84 1014.5
20260905060512 78 214 0.0 0.0 0.00 0.00 0.00 84 1014.5
20260905060022 78 214 0.0 0.0 0.00 0.00 0.00 83 1014.5
20260905055532 78 214 0.0 0.0 0.00 0.00 0.00 83 1014.6
20260905055014 78 214 0.0 0.0 0.00 0.00 0.00 83 1014.6
20260905054515 78 214 0.0 0.0 0.00 0.00 0.00 83 1014.7
20260905054025 78 214 0.0 0.0 0.00 0.00 0.00 83 1014.6
20260905053535 78 214 0.0 0.0 0.00 0.00 0.00 83 1014.7
20260905053018 79 214 0.0 0.0 0.00 0.00 0.00 82 1014.8